[[{"header":{"parameterUnit":"m.s-1","parameterCategory":1,"la1":30.2991,"la2":30.254,"lo1":-89.0895,"lo2":-89.0444,"dy":0.0017,"dx":0.0017,"nx":28,"ny":28,"refTime":"2024-10-21T21:00:00:Z","depth":0,"parameterNumber":2,"parameterNumberName":"U-component_of_WINDS"},"data":[0,0,0,0,0,0,0,0,0,0,0,0,0,0,0,0,0,0,0,0,0,0,0,0,0,0,0,0,0,0,0,0,0,0,0,0,0,0,0,0,0,0,0,0,0,0,0,0,0,0,0,0,0,0,0,0,0,0,-2.593,-2.5929,0,-2.5855,-2.5854,-2.5854,-2.5768,-2.5767,-2.5766,-2.5765,-2.5689,-2.5688,-2.5687,0,0,0,0,0,0,0,0,0,0,0,0,0,-2.6001,-2.6001,-2.593,-2.5929,-2.5928,-2.5855,-2.5854,-2.5853,-2.5769,-2.5767,-2.5766,-2.5764,-2.5689,-2.5688,-2.5687,0,0,0,0,0,0,0,0,0,0,0,0,0,-2.5953,-2.6,-2.593,-2.5877,-2.5872,-2.5856,-2.5854,-2.5853,-2.5769,-2.5767,-2.5765,-2.5763,-2.569,-2.5688,-2.5687,-2.5717,0,0,-2.5683,-2.5683,0,0,0,0,0,0,0,0,-2.5956,-2.595,-2.5886,-2.5881,-2.5875,-2.5819,-2.5852,-2.5808,-2.5769,-2.5808,-2.5765,-2.5762,-2.5734,-2.5729,-2.5719,-2.5714,-2.5711,-2.5683,-2.5682,-2.5682,-2.5682,0,0,0,0,0,0,0,-2.5959,-2.5953,-2.59,-2.5885,-2.5878,-2.5858,-2.5849,-2.5843,-2.5783,-2.5804,-2.5798,-2.579,-2.573,-2.572,-2.5717,-2.571,-2.5683,-2.5682,-2.5681,-2.5681,-2.5728,-2.573,0,0,0,0,0,0,-2.597,-2.5957,-2.5903,-2.5898,-2.5911,-2.5858,-2.5848,-2.5839,-2.5782,-2.5772,-2.5792,-2.5787,-2.5724,-2.5718,-2.5714,-2.5747,-2.5682,-2.5681,-2.568,-2.5726,-2.5729,-2.5731,0,0,0,0,0,0,-2.5972,-2.5966,-2.5906,-2.5926,-2.5916,-2.5859,-2.5849,-2.5838,-2.5828,-2.5773,-2.5762,-2.5793,-2.5722,-2.5715,-2.5718,-2.5743,-2.568,-2.5679,-2.5724,-2.5727,-2.573,-2.5814,0,0,0,0,0,0,-2.5975,-2.5968,-2.5978,-2.5926,-2.5916,-2.5911,-2.5851,-2.5838,-2.5826,-2.5819,-2.5771,-2.5761,-2.572,-2.572,-2.5716,-2.5741,-2.5678,-2.5721,-2.5725,-2.5729,-2.5809,-2.582,-2.5829,0,0,0,0,0,-2.5978,-2.6004,-2.5979,-2.5973,-2.5927,-2.5912,-2.5906,-2.5858,-2.5829,-2.5839,-2.5804,-2.5763,-2.5741,-2.5721,-2.5716,-2.574,-2.572,-2.5724,-2.5729,-2.5804,-2.5817,-2.5829,0,0,0,0,0,0,-2.606,-2.5996,-2.5968,-2.5978,-2.5952,-2.5898,-2.5909,-2.5873,-2.5854,-2.5847,-2.5789,-2.5779,-2.5789,-2.5764,-2.5743,-2.5768,-2.5725,-2.5728,-2.5784,-2.5796,-2.5806,-2.5812,-2.5677,0,0,0,0,0,-2.6079,-2.6072,-2.6017,-2.6032,-2.602,-2.5967,-2.5959,-2.5924,-2.5894,-2.5882,-2.5847,-2.582,-2.5807,-2.58,-2.5785,-2.5805,-2.5794,-2.5819,-2.5829,-2.5838,-2.5842,-2.5854,-2.5865,-2.5746,-2.5746,-2.5746,0,0,-2.6119,-2.6084,-2.6082,-2.6047,-2.6022,-2.6017,-2.5958,-2.5954,-2.595,-2.5882,-2.5882,-2.5856,-2.5822,-2.5834,-2.5837,-2.5814,-2.5873,-2.5844,-2.5851,-2.585,-2.5859,-2.5871,-2.5881,-2.5749,-2.5748,-2.5748,0,0,-2.6189,-2.6161,-2.6171,-2.6148,-2.6111,-2.6077,-2.608,-2.6032,-2.6012,-2.6011,-2.5961,-2.5955,-2.5934,-2.5912,-2.5899,-2.5964,-2.5926,-2.596,-2.6013,-2.6025,-2.6035,-2.6043,-2.6068,-2.6078,-2.5965,-2.5965,-2.5965,0,-2.6244,-2.6233,-2.6181,-2.6182,-2.6169,-2.6107,-2.6118,-2.6097,-2.6058,-2.6051,-2.6025,-2.5999,-2.5971,-2.5979,-2.5995,-2.5985,-2.5988,-2.5966,-2.6037,-2.6045,-2.6052,-2.6075,-2.6085,-2.5969,-2.5969,-2.5968,-2.5968,0,-2.6303,-2.6297,-2.631,-2.6274,-2.6262,-2.6268,-2.6218,-2.6212,-2.618,-2.6148,-2.615,-2.6115,-2.6093,-2.6092,-2.6059,-2.6095,-2.6082,-2.6048,-2.6003,-2.6068,-2.609,-2.6098,-2.5976,-2.5974,-2.5973,-2.5972,0,0,-2.6422,-2.6359,-2.6365,-2.6349,-2.6305,-2.63,-2.6304,-2.6282,-2.628,-2.6255,-2.6258,-2.6242,-2.6211,-2.6196,-2.616,-2.617,-2.6227,-2.6135,-2.6133,-2.6155,-2.6268,-2.6296,-2.6307,-2.6201,-2.6203,-2.6204,-2.6272,0,-2.6486,-2.6489,-2.6443,-2.6459,-2.6454,-2.6396,-2.6399,-2.6373,-2.6345,-2.6337,-2.6305,-2.6296,-2.6254,-2.6244,-2.6252,-2.6219,-2.6249,-2.6213,-2.6205,-2.6206,-2.6217,-2.6317,-2.6346,-2.6411,-2.6279,-2.6281,-2.6282,0,-2.656,-2.6541,-2.6557,-2.6514,-2.651,-2.6514,-2.6493,-2.6485,-2.6456,-2.6434,-2.6419,-2.6378,-2.6381,-2.6338,-2.6341,-2.6318,-2.6312,-2.6295,-2.6297,-2.6295,-2.6249,-2.6321,-2.643,-2.6441,-2.6294,-2.6293,-2.6292,0,-2.6648,-2.6626,-2.6633,-2.6621,-2.6571,-2.6576,-2.6556,-2.6524,-2.6515,-2.6496,-2.649,-2.6472,-2.6462,-2.645,-2.6407,-2.6379,-2.6416,-2.6369,-2.64,-2.6401,-2.6411,-2.6411,-2.6524,-2.6405,-2.6405,-2.6404,-2.6404,0,-2.6725,-2.6737,-2.6672,-2.6677,-2.669,-2.6638,-2.6652,-2.6626,-2.6599,-2.6598,-2.6547,-2.6547,-2.6489,-2.6484,-2.645,-2.646,-2.6455,-2.6439,-2.6431,-2.6445,-2.6447,-2.6441,-2.6436,-2.6407,-2.6406,-2.6406,-2.6405,0,-2.6826,-2.6782,-2.6787,-2.674,-2.6729,-2.674,-2.6701,-2.6704,-2.6672,-2.6672,-2.6669,-2.662,-2.6612,-2.6567,-2.6548,-2.6525,-2.6548,-2.6529,-2.6558,-2.6553,-2.6587,-2.6585,-2.6701,-2.6714,-2.6585,-2.6587,-2.6588,0,-2.6878,-2.6886,-2.6841,-2.6837,-2.682,-2.6813,-2.6805,-2.6754,-2.6747,-2.6716,-2.6723,-2.6711,-2.6698,-2.6687,-2.6651,-2.6636,-2.6618,-2.6659,-2.6615,-2.6631,-2.6621,-2.6622,-2.6624,-2.6669,-2.6671,-2.6672,-2.6673,0,-2.6977,-2.6955,-2.6944,-2.6927,-2.6918,-2.6902,-2.6882,-2.6882,-2.6827,-2.6822,-2.6813,-2.6803,-2.6784,-2.6773,-2.6753,-2.6733,-2.6695,-2.6688,-2.6694,-2.671,-2.6728,-2.6721,-2.6586,-2.6685,-2.6684,-2.6683,-2.6683,-2.6682,-2.7056,-2.7061,-2.7031,-2.7022,-2.7002,-2.6986,-2.6987,-2.6957,-2.6948,-2.6929,-2.69,-2.6896,-2.6868,-2.6838,-2.6821,-2.6818,-2.6796,-2.6805,-2.6808,-2.6811,-2.682,-2.6727,-2.6814,-2.6813,-2.6813,-2.6813,-2.6812,0,-2.7153,-2.7132,-2.7123,-2.7099,-2.7092,-2.7056,-2.7034,-2.703,-2.7027,-2.7005,-2.6994,-2.6985,-2.6975,-2.6938,-2.6924,-2.6929,-2.6912,-2.6927,-2.6927,-2.6924,-2.6839,-2.6836,-2.6942,-2.6942,-2.6942,-2.6942,-2.6942,-2.6942,-2.7203,-2.7212,-2.7188,-2.7187,-2.7165,-2.7161,-2.7152,-2.7137,-2.7119,-2.7112,-2.7103,-2.7079,-2.7052,-2.7036,-2.7026,-2.7015,-2.7014,-2.7036,-2.702,-2.6942,-2.693,-2.6918,-2.6914,-2.7036,-2.7036,-2.7106,-2.7106,-2.7107]},{"header":{"parameterUnit":"m.s-1","parameterCategory":1,"la1":30.2991,"la2":30.254,"lo1":-89.0895,"lo2":-89.0444,"dy":0.0017,"dx":0.0017,"nx":28,"ny":28,"refTime":"2024-10-21T21:00:00:Z","depth":0,"parameterNumber":3,"parameterNumberName":"V-component_of_WINDS"},"data":[0,0,0,0,0,0,0,0,0,0,0,0,0,0,0,0,0,0,0,0,0,0,0,0,0,0,0,0,0,0,0,0,0,0,0,0,0,0,0,0,0,0,0,0,0,0,0,0,0,0,0,0,0,0,0,0,0,0,-0.051,-0.051,0,-0.0529,-0.0529,-0.0529,-0.0494,-0.0493,-0.0491,-0.049,-0.0513,-0.0514,-0.0516,0,0,0,0,0,0,0,0,0,0,0,0,0,-0.0447,-0.0448,-0.051,-0.051,-0.0511,-0.0529,-0.0529,-0.053,-0.0494,-0.0493,-0.0491,-0.049,-0.0512,-0.0514,-0.0516,0,0,0,0,0,0,0,0,0,0,0,0,0,-0.0471,-0.0448,-0.051,-0.0495,-0.0494,-0.0529,-0.0529,-0.053,-0.0494,-0.0492,-0.0491,-0.0489,-0.0511,-0.0514,-0.0516,-0.0568,0,0,-0.0524,-0.0525,0,0,0,0,0,0,0,0,-0.047,-0.0473,-0.0497,-0.0496,-0.0495,-0.0507,-0.0515,-0.0543,-0.0495,-0.0494,-0.049,-0.0488,-0.0512,-0.0515,-0.0522,-0.0569,-0.057,-0.0524,-0.0526,-0.0527,-0.0528,0,0,0,0,0,0,0,-0.0468,-0.0472,-0.0518,-0.0498,-0.0496,-0.0488,-0.049,-0.052,-0.0513,-0.0494,-0.0492,-0.0494,-0.0512,-0.052,-0.0523,-0.057,-0.0524,-0.0527,-0.0528,-0.0529,-0.0662,-0.0664,0,0,0,0,0,0,-0.0468,-0.0471,-0.0517,-0.0518,-0.0477,-0.0491,-0.0493,-0.0505,-0.0513,-0.0512,-0.0496,-0.0492,-0.0516,-0.052,-0.0523,-0.0586,-0.0527,-0.0529,-0.0531,-0.066,-0.0663,-0.0665,0,0,0,0,0,0,-0.0466,-0.0472,-0.0516,-0.0494,-0.0499,-0.0494,-0.0508,-0.0506,-0.0515,-0.0514,-0.0513,-0.0505,-0.0515,-0.052,-0.0557,-0.0586,-0.0531,-0.0533,-0.0658,-0.0661,-0.0664,-0.0711,0,0,0,0,0,0,-0.0465,-0.0472,-0.0491,-0.0495,-0.05,-0.055,-0.051,-0.0508,-0.0519,-0.0515,-0.0523,-0.0522,-0.0514,-0.0554,-0.056,-0.0589,-0.0535,-0.0655,-0.0659,-0.0663,-0.0707,-0.0716,-0.0723,0,0,0,0,0,-0.0463,-0.0504,-0.0492,-0.0498,-0.0524,-0.0551,-0.0555,-0.0543,-0.0521,-0.0541,-0.054,-0.0522,-0.0581,-0.0558,-0.0564,-0.0595,-0.0653,-0.0658,-0.0662,-0.0704,-0.0714,-0.0723,0,0,0,0,0,0,-0.0505,-0.0504,-0.0491,-0.0534,-0.0543,-0.0545,-0.057,-0.0554,-0.057,-0.0566,-0.0552,-0.0554,-0.0595,-0.0598,-0.0572,-0.0646,-0.0614,-0.062,-0.0643,-0.0653,-0.066,-0.066,-0.0537,0,0,0,0,0,-0.0518,-0.054,-0.0538,-0.0577,-0.0582,-0.0575,-0.0586,-0.0577,-0.0586,-0.059,-0.0592,-0.0602,-0.0623,-0.0638,-0.0657,-0.0706,-0.0709,-0.073,-0.0738,-0.0745,-0.0751,-0.078,-0.079,-0.0679,-0.0679,-0.0679,0,0,-0.0548,-0.0551,-0.0565,-0.0586,-0.0591,-0.0615,-0.0578,-0.0605,-0.0623,-0.0594,-0.063,-0.0632,-0.0643,-0.0687,-0.0707,-0.0691,-0.0782,-0.075,-0.0755,-0.0759,-0.0786,-0.0796,-0.0805,-0.0683,-0.0682,-0.0681,0,0,-0.0616,-0.0618,-0.0652,-0.0658,-0.0667,-0.0662,-0.067,-0.0674,-0.0674,-0.071,-0.0689,-0.071,-0.0746,-0.0755,-0.0765,-0.0835,-0.082,-0.0841,-0.0883,-0.0911,-0.092,-0.0928,-0.0956,-0.0966,-0.0847,-0.0847,-0.0847,0,-0.0652,-0.0687,-0.0671,-0.07,-0.071,-0.0683,-0.0718,-0.0725,-0.074,-0.0748,-0.0729,-0.0775,-0.078,-0.0827,-0.0844,-0.0851,-0.0862,-0.0842,-0.092,-0.0927,-0.0935,-0.0961,-0.0971,-0.085,-0.0849,-0.0849,-0.0849,0,-0.0733,-0.0757,-0.0782,-0.0797,-0.081,-0.0841,-0.0832,-0.0847,-0.0836,-0.0833,-0.0871,-0.0875,-0.0896,-0.0906,-0.0895,-0.0952,-0.0942,-0.0922,-0.089,-0.0948,-0.0973,-0.0983,-0.0854,-0.0853,-0.0852,-0.0851,0,0,-0.0829,-0.0834,-0.0844,-0.0851,-0.0858,-0.0878,-0.0908,-0.0927,-0.0941,-0.0952,-0.0979,-0.101,-0.0991,-0.1001,-0.0991,-0.1016,-0.1074,-0.0992,-0.0993,-0.101,-0.114,-0.1159,-0.117,-0.1063,-0.1064,-0.1066,-0.1141,0,-0.0898,-0.095,-0.0937,-0.099,-0.1013,-0.0987,-0.1014,-0.1022,-0.102,-0.1041,-0.1038,-0.1062,-0.1033,-0.104,-0.1063,-0.1063,-0.1101,-0.1056,-0.109,-0.1092,-0.1092,-0.1183,-0.1202,-0.1272,-0.115,-0.1152,-0.1153,0,-0.0987,-0.1001,-0.1055,-0.106,-0.1069,-0.1093,-0.111,-0.1129,-0.1138,-0.1135,-0.1147,-0.1132,-0.1164,-0.1129,-0.1173,-0.1144,-0.1156,-0.1158,-0.116,-0.1166,-0.1128,-0.1194,-0.1294,-0.1306,-0.1167,-0.1166,-0.1165,0,-0.1056,-0.1088,-0.1125,-0.1131,-0.1136,-0.1155,-0.1158,-0.1164,-0.1177,-0.1192,-0.1201,-0.1219,-0.123,-0.1245,-0.1237,-0.1212,-0.1284,-0.1248,-0.1285,-0.1285,-0.1304,-0.1304,-0.1411,-0.1306,-0.1306,-0.1306,-0.1306,0,-0.1136,-0.1172,-0.1156,-0.118,-0.1219,-0.1203,-0.1243,-0.1243,-0.1249,-0.1273,-0.1251,-0.1274,-0.126,-0.1282,-0.1275,-0.1315,-0.1319,-0.1319,-0.1318,-0.1324,-0.1324,-0.1334,-0.1331,-0.1309,-0.1308,-0.1308,-0.1307,0,-0.1222,-0.1212,-0.1252,-0.1253,-0.1254,-0.1284,-0.1285,-0.1308,-0.1303,-0.1334,-0.134,-0.1334,-0.136,-0.1351,-0.1379,-0.1374,-0.1426,-0.1416,-0.1423,-0.1422,-0.146,-0.1458,-0.1581,-0.1597,-0.1479,-0.148,-0.1481,0,-0.1276,-0.1302,-0.1306,-0.132,-0.1325,-0.1348,-0.1361,-0.1346,-0.136,-0.1372,-0.1394,-0.1417,-0.1435,-0.1477,-0.1476,-0.1497,-0.149,-0.1531,-0.1493,-0.1498,-0.1495,-0.1495,-0.1499,-0.154,-0.1541,-0.1543,-0.1543,0,-0.1374,-0.1368,-0.1386,-0.1404,-0.142,-0.1433,-0.1444,-0.1457,-0.1443,-0.1461,-0.1486,-0.15,-0.1527,-0.1551,-0.157,-0.1575,-0.1558,-0.1555,-0.1565,-0.1573,-0.1578,-0.1579,-0.1447,-0.1553,-0.1552,-0.1551,-0.1551,-0.155,-0.1447,-0.147,-0.1477,-0.1499,-0.1506,-0.1517,-0.1539,-0.1537,-0.1557,-0.1578,-0.1568,-0.1598,-0.1607,-0.163,-0.1637,-0.1661,-0.1646,-0.166,-0.1664,-0.1669,-0.1675,-0.157,-0.1664,-0.1664,-0.1664,-0.1663,-0.1663,0,-0.1547,-0.1549,-0.157,-0.1586,-0.1604,-0.1584,-0.1595,-0.1612,-0.1638,-0.1647,-0.1665,-0.1695,-0.1718,-0.1719,-0.1741,-0.176,-0.1753,-0.1767,-0.1767,-0.1769,-0.1686,-0.1677,-0.1772,-0.1772,-0.1772,-0.1772,-0.1772,-0.1772,-0.1601,-0.164,-0.1635,-0.1677,-0.168,-0.1708,-0.1717,-0.1728,-0.1735,-0.1769,-0.1788,-0.1787,-0.1794,-0.1816,-0.1837,-0.1836,-0.1847,-0.1865,-0.1862,-0.1785,-0.1775,-0.1764,-0.1756,-0.1866,-0.1866,-0.1943,-0.1944,-0.1944]}]]